Biloxi, MS

7:20 AM CDT on July 24, 2017 (GMT -0500)
Keesler Air Force Base

Weather History for KBIX - September, 2012

Change the Weather History Date:

Friday, September 28, 2012

  Actual Average Record
Temperature  
Mean Temperature 78 °F -  
Max Temperature 86 °F 85 °F 96 °F (1953)
Min Temperature 70 °F 66 °F 52 °F (1975)
Cooling Degree Days 13    
Growing Degree Days 28 (Base 50)    
Moisture  
Dew Point 69 °F    
Average Humidity 75    
Maximum Humidity 89    
Minimum Humidity 52    
Precipitation  
Precipitation 0.08 in - - ()
Sea Level Pressure  
Sea Level Pressure 30.03 in    
Wind  
Wind Speed 5 mph (SE)    
Max Wind Speed 10 mph    
Max Gust Speed -    
Visibility 10 miles    
Events Rain    
Averages and records for this station are not official NWS values.
T = Trace of Precipitation, MM = Missing Value Source: NWS Daily Summary

Daily Weather History Graph

Daily Weather History Graph

Search for Another Location

Airport or City:

Trip Planner

Search our weather history database for the weather conditions in past years. The results will help you decide how hot, cold, wet, or windy it might be!

Date:

Astronomy

Sep. 28, 2012 Rise Set
Actual Time 6:47 AM CDT 6:44 PM CDT
Civil Twilight 6:23 AM CDT 7:08 PM CDT
Nautical Twilight 5:55 AM CDT 7:35 PM CDT
Astronomical Twilight 5:27 AM CDT 8:03 PM CDT
Moon 5:45 PM CDT (9/28) 5:21 AM CDT (9/28)
Length of Visible Light 12h 44m
Length of Day
11h 56m
Waxing Gibbous, 98% of the Moon is Illuminated
Sep 28
Waxing Gibbous
Sep 29
Full
Oct 8
Last Quarter
Oct 15
New
Oct 21
First Quarter

Hourly Weather History & Observations

Time (CDT) Temp. Heat Index Dew Point Humidity Pressure Visibility Wind Dir Wind Speed Gust Speed Precip Events Conditions
12:55 AM 73.4 °F - 68.0 °F 83% 30.08 in 10.0 mi NNE 3.5 mph - N/A   Clear
1:55 AM 73.4 °F - 68.2 °F 84% 30.06 in 10.0 mi East 3.5 mph - N/A   Clear
2:55 AM 73.4 °F - 68.0 °F 83% 30.05 in 10.0 mi Calm Calm - N/A   Clear
3:55 AM 72.5 °F - 67.6 °F 85% 30.05 in 10.0 mi NE 4.6 mph - N/A   Clear
4:55 AM 71.4 °F - 67.1 °F 86% 30.06 in 10.0 mi NE 5.8 mph - N/A   Clear
5:55 AM 70.7 °F - 66.6 °F 87% 30.07 in 10.0 mi ENE 4.6 mph - N/A   Clear
6:55 AM 70.9 °F - 67.5 °F 89% 30.07 in 10.0 mi NE 6.9 mph - N/A   Clear
7:55 AM 72.9 °F - 68.7 °F 87% 30.08 in 10.0 mi NE 4.6 mph - N/A   Scattered Clouds
8:55 AM 77.4 °F - 67.8 °F 72% 30.08 in 10.0 mi NE 4.6 mph - N/A   Clear
9:55 AM 82.0 °F 85.3 °F 68.7 °F 64% 30.09 in 10.0 mi East 5.8 mph - N/A   Partly Cloudy
10:55 AM 83.7 °F 86.5 °F 67.5 °F 58% 30.09 in 10.0 mi ENE 4.6 mph - N/A   Clear
11:55 AM 86.2 °F 88.8 °F 66.9 °F 52% 30.08 in 10.0 mi SSE 6.9 mph - N/A   Clear
12:55 PM 86.0 °F 89.4 °F 68.2 °F 55% 30.06 in 10.0 mi South 8.1 mph - N/A   Clear
1:55 PM 85.3 °F 89.4 °F 69.6 °F 59% 30.03 in 10.0 mi South 9.2 mph - N/A   Mostly Cloudy
2:55 PM 85.5 °F 89.8 °F 69.4 °F 59% 30.01 in 10.0 mi SE 10.4 mph - N/A   Partly Cloudy
3:55 PM 82.8 °F 86.4 °F 69.4 °F 64% 30.00 in 10.0 mi South 10.4 mph - N/A   Partly Cloudy
4:55 PM 81.3 °F 84.3 °F 68.7 °F 65% 30.00 in 10.0 mi South 5.8 mph - N/A   Scattered Clouds
5:33 PM 78.8 °F - 68.0 °F 69% 30.01 in 10.0 mi NE 3.5 mph - N/A   Mostly Cloudy
5:40 PM 78.8 °F - 68.0 °F 69% 30.00 in 10.0 mi NE 4.6 mph - N/A   Mostly Cloudy
5:55 PM 79.7 °F - 68.0 °F 67% 30.00 in 10.0 mi Calm Calm - N/A   Scattered Clouds
6:00 PM 80.6 °F 83.2 °F 68.0 °F 65% 29.99 in 10.0 mi Calm Calm - N/A Rain Light Rain
6:47 PM 78.8 °F - 69.8 °F 74% 30.00 in 10.0 mi SSW 4.6 mph - N/A   Scattered Clouds
6:55 PM 78.8 °F - 70.2 °F 75% 30.00 in 10.0 mi SW 5.8 mph - 0.00 in   Scattered Clouds
7:16 PM 78.8 °F - 69.8 °F 74% 30.01 in 10.0 mi Variable 3.5 mph - N/A Rain Light Rain
7:55 PM 76.3 °F - 70.3 °F 82% 30.01 in 7.0 mi Calm Calm - 0.03 in Rain Light Rain
7:56 PM 77.0 °F - 69.8 °F 78% 30.01 in 7.0 mi Calm Calm - N/A Rain Light Rain
8:32 PM 77.0 °F - 71.6 °F 83% 30.02 in 9.0 mi Calm Calm - N/A Rain Light Rain
8:55 PM 77.4 °F - 72.5 °F 85% 30.02 in 10.0 mi SSW 9.2 mph - 0.05 in Rain Light Rain
9:04 PM 77.0 °F - 73.4 °F 89% 30.02 in 10.0 mi SW 8.1 mph - N/A   Partly Cloudy
9:55 PM 77.7 °F - 71.4 °F 81% 30.02 in 10.0 mi SSW 8.1 mph - 0.00 in   Mostly Cloudy
9:56 PM 77.0 °F - 71.6 °F 83% 30.02 in 10.0 mi SSW 8.1 mph - N/A   Mostly Cloudy
10:06 PM 77.0 °F - 71.6 °F 83% 30.02 in 10.0 mi SW 6.9 mph - N/A   Mostly Cloudy
10:55 PM 77.0 °F - 70.9 °F 81% 30.01 in 10.0 mi SW 3.5 mph - N/A   Mostly Cloudy
11:55 PM 76.6 °F - 71.8 °F 85% 30.01 in 10.0 mi Calm Calm - N/A   Overcast